Location: *
(45.8589°N, 4.7139°E)
Time: 22:54:41
(UTC+00:00)

Cosmos 2369 Rocket - Pass Details

Date: 09 April 2020
Orbit: 829 x 852 km, 71.0° (Epoch: 02 June)

Event Time Altitude Azimuth Distance (km) Brightness Sun altitude
Rises 18:41:50 0° 329° (NNW) 3,421 6.2 -4.4°
Reaches altitude 10° 18:44:21 10° 324° (NW) 2,479 5.5 -4.8°
Maximum altitude 18:49:48 49° 251° (WSW) 1,076 3.2 -5.7°
Drops below altitude 10° 18:55:12 10° 178° (S) 2,447 4.4 -6.6°
Sets 18:57:41 0° 173° (S) 3,374 5.1 -7.0°
